Weather History for KPMD - May, 2012

Change the Weather History Date:

Saturday, May 26, 2012

  Actual Average Record
Temperature  
Mean Temperature 55 °F 70 °F  
Max Temperature 66 °F 86 °F 100 °F (1974)
Min Temperature 44 °F 55 °F 38 °F (1953)
Degree Days  
Heating Degree Days 10 1  
Month to date heating degree days 20 63  
Since 1 July heating degree days 2818 2913  
Cooling Degree Days 0 7  
Month to date cooling degree days 155 111  
Year to date cooling degree days 210 134  
Growing Degree Days 4 (Base 50)    
Moisture  
Dew Point 35 °F    
Average Humidity 52    
Maximum Humidity 70    
Minimum Humidity 34    
Precipitation  
Precipitation 0.00 in 0.00 in 0.07 in (1937)
Month to date precipitation T 0.23  
Year to date precipitation 1.79 5.21  
Since 1 July precipitation 3.72 8.19  
Snow  
Snow 0.00 in - - ()
Month to date snowfall 0.0  
Since 1 July snowfall 0.0  
Snow Depth 0.00 in    
Sea Level Pressure  
Sea Level Pressure 29.89 in    
Wind  
Wind Speed 18 mph (WSW)    
Max Wind Speed 30 mph    
Max Gust Speed 37 mph    
Visibility 10 miles    
Events      
T = Trace of Precipitation, MM = Missing Value Source: NWS Daily Summary

Daily Weather History Graph

Daily Weather History Graph

Search for Another Location

Airport or City:

Trip Planner

Search our weather history database for the weather conditions in past years. The results will help you decide how hot, cold, wet, or windy it might be!

Date:

Astronomy

May. 26, 2012 Rise Set
Actual Time 5:42 AM PDT 7:56 PM PDT
Civil Twilight 5:13 AM PDT 8:25 PM PDT
Nautical Twilight 4:38 AM PDT 9:00 PM PDT
Astronomical Twilight 4:00 AM PDT 9:38 PM PDT
Moon 10:43 AM PDT (5/26) No Moon Set
Length of Visible Light 15h 11m
Length of Day
14h 14m
Waxing Crescent, 29% of the Moon is Illuminated
May 26
Waxing Crescent
May 28
First Quarter
Jun 4
Full
Jun 11
Last Quarter
Jun 19
New

Hourly Weather History & Observations

Time (PDT) Temp. Windchill Dew Point Humidity Pressure Visibility Wind Dir Wind Speed Gust Speed Precip Events Conditions
12:53 AM 48.0 °F - 33.1 °F 56% 29.77 in 10.0 mi West 13.8 mph - N/A   Mostly Cloudy
1:53 AM 46.9 °F - 34.0 °F 61% 29.78 in 10.0 mi West 12.7 mph - N/A   Clear
2:53 AM 46.0 °F 41.0 °F 35.1 °F 66% 29.77 in 10.0 mi WSW 10.4 mph - N/A   Clear
3:53 AM 45.0 °F 39.7 °F 35.1 °F 68% 29.79 in 10.0 mi WSW 10.4 mph - N/A   Clear
4:53 AM 45.0 °F 38.2 °F 34.0 °F 65% 29.81 in 10.0 mi WSW 15.0 mph - N/A   Clear
5:53 AM 46.0 °F 40.6 °F 33.1 °F 61% 29.82 in 10.0 mi SW 11.5 mph - N/A   Clear
6:53 AM 46.9 °F - 35.1 °F 63% 29.83 in 10.0 mi SW 16.1 mph - N/A   Clear
7:53 AM 52.0 °F - 28.9 °F 41% 29.86 in 10.0 mi West 19.6 mph 26.5 mph N/A   Clear
8:53 AM 55.0 °F - 28.9 °F 37% 29.89 in 10.0 mi WSW 18.4 mph 24.2 mph N/A   Clear
9:53 AM 55.9 °F - 32.0 °F 40% 29.89 in 10.0 mi SW 15.0 mph 28.8 mph N/A   Clear
10:53 AM 59.0 °F - 33.1 °F 38% 29.90 in 10.0 mi SW 23.0 mph 31.1 mph N/A   Scattered Clouds
11:53 AM 63.0 °F - 33.1 °F 33% 29.92 in 10.0 mi WSW 23.0 mph 32.2 mph N/A   Scattered Clouds
12:53 PM 63.0 °F - 34.0 °F 34% 29.92 in 10.0 mi WSW 26.5 mph 35.7 mph N/A   Scattered Clouds
1:53 PM 63.0 °F - 35.1 °F 35% 29.94 in 10.0 mi SW 19.6 mph 31.1 mph N/A   Scattered Clouds
2:53 PM 64.0 °F - 36.0 °F 35% 29.93 in 10.0 mi SW 18.4 mph 31.1 mph N/A   Clear
3:53 PM 64.9 °F - 37.9 °F 37% 29.92 in 10.0 mi WSW 23.0 mph 32.2 mph N/A   Clear
4:53 PM 64.9 °F - 37.9 °F 37% 29.93 in 10.0 mi WSW 19.6 mph 27.6 mph N/A   Clear
5:53 PM 63.0 °F - 37.9 °F 40% 29.93 in 10.0 mi SW 20.7 mph 27.6 mph N/A   Clear
6:53 PM 61.0 °F - 37.9 °F 42% 29.93 in 10.0 mi WSW 21.9 mph - N/A   Clear
7:53 PM 57.9 °F - 37.9 °F 47% 29.95 in 10.0 mi SW 21.9 mph 25.3 mph N/A   Clear
8:53 PM 55.9 °F - 39.0 °F 53% 29.96 in 10.0 mi SW 20.7 mph 28.8 mph N/A   Clear
9:53 PM 53.6 °F - 39.2 °F 58% 30.01 in 10.0 mi SW 13.8 mph - N/A   Clear
10:53 PM 54.0 °F - 39.0 °F 57% 29.99 in 10.0 mi SW 13.8 mph - N/A   Clear
11:53 PM 53.1 °F - 39.9 °F 61% 29.99 in 10.0 mi SSW 15.0 mph - N/A   Clear